Date,TemperatureHighF,TemperatureAvgF,TemperatureLowF,DewpointHighF,DewpointAvgF,DewpointLowF,HumidityHigh,HumidityAvg,HumidityLow,PressureMaxIn,PressureMinIn,WindSpeedMaxMPH,WindSpeedAvgMPH,GustSpeedMaxMPH,PrecipitationSumIn
2013-2-1,48,45,42,45,44,41,98,95,87,30.40,30.32,6,2,11,0.03
2013-2-2,42,40,38,41,39,37,98,97,94,30.38,30.25,5,2,9,0.00
2013-2-3,46,43,37,43,41,36,98,94,87,30.29,30.20,8,4,13,0.10
2013-2-4,50,46,43,44,42,41,94,88,77,30.20,29.89,6,3,11,0.08
2013-2-5,49,45,44,43,42,41,93,88,77,29.93,29.83,12,7,24,0.08
2013-2-6,49,45,42,43,41,39,93,87,75,30.04,29.79,11,6,23,0.16
2013-2-7,49,43,40,40,38,35,92,81,61,30.17,29.79,15,6,26,0.14
2013-2-8,44,41,38,38,38,36,95,88,77,30.29,30.17,4,2,7,0.00
2013-2-9,44,42,39,40,38,37,95,89,75,30.33,30.26,4,1,6,0.02
2013-2-10,44,40,35,40,38,34,97,92,84,30.37,30.32,4,2,8,0.02
2013-2-11,46,43,40,42,40,38,95,90,79,30.35,30.32,6,2,11,0.02
2013-2-12,49,46,44,46,44,42,96,93,86,30.40,30.28,16,7,29,0.02
2013-2-13,47,45,44,45,42,40,96,88,82,30.49,30.28,12,3,22,0.01
2013-2-14,48,45,42,45,43,40,95,92,86,30.55,30.49,4,2,9,0.03
2013-2-15,52,45,41,45,42,40,97,91,73,30.54,30.18,6,2,12,0.01
2013-2-16,51,45,41,44,41,37,97,87,67,30.19,30.10,13,6,22,0.00
2013-2-17,44,41,39,39,37,35,91,86,77,30.24,30.11,6,3,10,0.05
2013-2-18,45,42,39,38,37,35,94,85,74,30.11,29.76,7,2,13,0.03
2013-2-19,49,42,38,39,37,35,94,82,62,30.00,29.74,8,3,15,0.00
2013-2-20,44,40,36,39,37,34,94,90,81,30.03,29.98,8,2,15,0.09
2013-2-21,43,41,40,41,39,37,95,91,87,30.06,30.00,15,8,29,0.10
2013-2-22,45,42,38,42,39,34,93,89,81,30.05,29.70,20,12,34,0.24
2013-2-23,49,42,38,39,36,34,90,81,63,30.36,29.90,8,4,16,0.01
2013-2-24,46,44,40,38,37,35,87,77,67,30.37,29.95,11,7,24,0.00
2013-2-25,50,43,37,40,36,30,92,78,47,30.29,29.88,18,10,31,0.16
2013-2-26,47,42,37,37,35,34,90,77,61,30.34,30.19,11,5,18,0.03
2013-2-27,47,43,40,43,40,37,96,90,78,30.30,30.19,9,2,16,0.35
2013-2-28,51,46,42,50,46,41,97,96,95,30.32,30.19,11,5,20,0.50